This is the latest recevied weather packets stored in our database for station/object N2PUI. If no packets are shown the sender has not sent any weather packets the latest 10 day(s).
| Time | Temp. | Humidity | Pressure | Rain* | Wind** | Luminosity | Snow |
|---|---|---|---|---|---|---|---|
| 1777520368 | 10° C | 95% | 1007.1 hPa | 0 mm | - | 0 W/m² | - |
| 1777520065 | 10° C | 95% | 1007.1 hPa | 0 mm | - | 0 W/m² | - |
| 1777519762 | 10° C | 95% | 1007 hPa | 0 mm | - | 0 W/m² | - |
| 1777519459 | 10° C | 95% | 1007.1 hPa | 0 mm | - | 0 W/m² | - |
| 1777519156 | 10.56° C | 95% | 1007.1 hPa | 0 mm | - | 0 W/m² | - |
| 1777518851 | 10.56° C | 95% | 1007.2 hPa | 0 mm | - | 0 W/m² | - |
| 1777518547 | 10.56° C | 95% | 1007.2 hPa | 0 mm | - | 0 W/m² | - |
| 1777518243 | 10.56° C | 95% | 1007.3 hPa | 0 mm | - | 0 W/m² | - |
| 1777517940 | 10.56° C | 95% | 1007.2 hPa | 0 mm | - | 0 W/m² | - |
| 1777517636 | 10.56° C | 95% | 1007.1 hPa | 0 mm | - | 0 W/m² | - |
| 1777517333 | 10.56° C | 95% | 1007.2 hPa | 0 mm | - | 0 W/m² | - |
| 1777517032 | 10.56° C | 95% | 1007.3 hPa | 0 mm | - | 0 W/m² | - |
| 1777516729 | 10.56° C | 95% | 1007.3 hPa | 0 mm | - | 0 W/m² | - |
| 1777516425 | 10.56° C | 95% | 1007.2 hPa | 1.78 mm | - | 0 W/m² | - |
| 1777516121 | 10.56° C | 95% | 1007.4 hPa | 1.78 mm | - | 0 W/m² | - |
| 1777515818 | 10.56° C | 95% | 1007.2 hPa | 0 mm | - | 0 W/m² | - |
| 1777515515 | 10.56° C | 95% | 1007.6 hPa | 0 mm | - | 0 W/m² | - |
| 1777515212 | 10.56° C | 95% | 1007.4 hPa | 0 mm | - | 0 W/m² | - |
| 1777514907 | 10.56° C | 95% | 1007.7 hPa | 1.27 mm | - | 0 W/m² | - |
| 1777514604 | 10.56° C | 95% | 1007.5 hPa | 1.27 mm | - | 0 W/m² | - |
| 1777514302 | 10.56° C | 95% | 1007.7 hPa | 1.78 mm | - | 0 W/m² | - |
| 1777513998 | 10.56° C | 95% | 1007.7 hPa | 1.78 mm | - | 0 W/m² | - |
| 1777513696 | 10.56° C | 95% | 1007.6 hPa | 1.78 mm | - | 0 W/m² | - |
| 1777513393 | 10.56° C | 95% | 1007.5 hPa | 3.05 mm | - | 0 W/m² | - |
| 1777513089 | 10.56° C | 95% | 1007.6 hPa | 3.05 mm | - | 0 W/m² | - |
* Rain latest hour (hover to see other rain measurements)
** Current wind speed in m/s (hover to see current wind gust speed)